Louisville Bowman, KY

4:02 PM EDT on July 23, 2017 (GMT -0400)
Bowman

Weather History for KLOU - January, 1999

Change the Weather History Date:

Friday, January 8, 1999

  Actual Average Record
Temperature  
Mean Temperature 30 °F 34 °F  
Max Temperature 35 °F 42 °F 78 °F (2008)
Min Temperature 24 °F 27 °F -2 °F (1970)
Degree Days  
Heating Degree Days 36 31  
Month to date heating degree days 242  
Since 1 July heating degree days 1906  
Cooling Degree Days 0 0  
Month to date cooling degree days 0  
Year to date cooling degree days 0  
Moisture  
Dew Point 32 °F    
Average Humidity 99    
Maximum Humidity 100    
Minimum Humidity 87    
Precipitation  
Precipitation 0.00 in 0.11 in 1.54 in (1978)
Month to date precipitation 0.98  
Year to date precipitation 0.98  
Sea Level Pressure  
Sea Level Pressure 29.94 in    
Wind  
Wind Speed 4 mph (NE)    
Max Wind Speed 9 mph    
Max Gust Speed -    
Visibility 2 miles    
Events Fog , Rain    
T = Trace of Precipitation, MM = Missing Value Source: NWS Daily Summary

Daily Weather History Graph

Daily Weather History Graph

Search for Another Location

Airport or City:

Trip Planner

Search our weather history database for the weather conditions in past years. The results will help you decide how hot, cold, wet, or windy it might be!

Date:

Astronomy

Jan. 08, 1999 Rise Set
Actual Time 7:59 AM EST 5:39 PM EST
Civil Twilight 7:30 AM EST 6:08 PM EST
Nautical Twilight 6:57 AM EST 6:41 PM EST
Astronomical Twilight 6:25 AM EST 7:13 PM EST
Moon No Moon Rise 12:07 PM EST (1/8)
Length of Visible Light 10h 38m
Length of Day
9h 39m
Waning Gibbous, 59% of the Moon is Illuminated
Jan 8
Waning Gibbous
Jan 9
Last Quarter
Jan 17
New
Jan 24
First Quarter
Jan 31
Full

Hourly Weather History & Observations

Time (EST) Temp. Windchill Dew Point Humidity Pressure Visibility Wind Dir Wind Speed Gust Speed Precip Events Conditions
12:57 AM 24.8 °F 17.9 °F 24.8 °F 100% 30.18 in 5.0 mi NE 5.8 mph - N/A Rain Light Freezing Rain
1:58 AM 26.6 °F 22.6 °F 26.6 °F 100% 30.14 in 2.0 mi NE 3.5 mph - N/A Rain Light Freezing Rain
2:57 AM 28.4 °F 21.2 °F 28.4 °F 100% 30.12 in 2.0 mi ENE 6.9 mph - N/A Rain Light Freezing Rain
3:56 AM 28.4 °F 21.2 °F 28.4 °F 100% 30.11 in 2.0 mi ENE 6.9 mph - N/A Rain Light Freezing Rain
4:57 AM 30.2 °F 25.4 °F 30.2 °F 100% 30.08 in 2.0 mi ENE 4.6 mph - N/A Rain Light Freezing Rain
6:28 AM 30.2 °F 24.3 °F 30.2 °F 100% 30.06 in 2.0 mi East 5.8 mph - N/A Rain Light Freezing Rain
6:56 AM - - - N/A% 30.07 in 2.0 mi East 5.8 mph - N/A   Light Freezing Drizzle
7:50 AM 30.2 °F - 30.2 °F 100% 30.06 in 2.0 mi Calm Calm - N/A   Overcast
8:15 AM 32.0 °F - 30.2 °F 93% 30.04 in 2.0 mi Calm Calm - N/A   Light Freezing Drizzle
8:50 AM 32.0 °F - 30.2 °F 93% 30.03 in 5.5 mi Calm Calm - N/A   Light Freezing Drizzle
9:37 AM 32.0 °F - 32.0 °F 100% 30.01 in 0.8 mi Calm Calm - N/A Rain Light Rain
9:51 AM 33.8 °F - 33.8 °F 100% 30.01 in 0.8 mi Calm Calm - N/A Rain Light Rain
10:57 AM 33.8 °F - 33.8 °F 100% 29.99 in 0.8 mi Calm Calm - N/A Rain Light Rain
11:50 AM 33.8 °F - 33.8 °F 100% 29.96 in 0.5 mi North - - N/A Rain Light Rain
12:51 PM 33.8 °F - 33.8 °F 100% 29.90 in 0.5 mi Calm Calm - N/A Rain Rain
1:47 PM 33.8 °F 30.8 °F 33.8 °F 100% 29.88 in 0.5 mi NW 3.5 mph - N/A Rain Rain
2:38 PM 33.8 °F 30.8 °F 33.8 °F 100% 29.84 in 0.5 mi ESE 3.5 mph - N/A Fog , Rain Light Rain
2:58 PM 35.6 °F - 35.6 °F 100% 29.83 in 0.5 mi Variable 2.3 mph - N/A Fog , Rain Light Rain
3:20 PM 35.6 °F 32.8 °F 35.6 °F 100% 29.81 in 1.0 mi ESE 3.5 mph - N/A Rain Light Rain
3:50 PM 35.6 °F 30.7 °F 35.6 °F 100% 29.83 in 0.5 mi NNW 5.8 mph - N/A Fog , Rain Rain
4:30 PM 35.6 °F 31.7 °F 35.6 °F 100% 29.80 in 1.0 mi East 4.6 mph - N/A Rain Rain
4:54 PM 35.6 °F 31.7 °F 35.6 °F 100% 29.80 in 1.0 mi East 4.6 mph - N/A Rain Rain
5:50 PM 35.6 °F 28.6 °F 35.6 °F 100% 29.79 in 0.5 mi WNW 9.2 mph - N/A Fog , Rain Light Rain
6:51 PM 35.6 °F 30.7 °F 35.6 °F 100% 29.79 in 0.8 mi North 5.8 mph - N/A Rain Light Rain
7:39 PM 33.8 °F 29.6 °F 33.8 °F 100% 29.80 in 0.8 mi NNE 4.6 mph - N/A Rain Light Rain
7:51 PM 33.8 °F 27.0 °F 30.2 °F 87% 29.81 in 2.0 mi NNW 8.1 mph - N/A Rain Light Rain
8:50 PM 33.8 °F 27.0 °F 33.8 °F 100% 29.82 in 6.0 mi NW 8.1 mph - N/A Rain Light Rain
9:50 PM 33.8 °F 27.0 °F 33.8 °F 100% 29.83 in 5.0 mi NW 8.1 mph - N/A Rain Light Rain
10:52 PM 33.8 °F - 33.8 °F 100% 29.84 in 7.0 mi Calm Calm - N/A   Overcast
11:48 PM 32.0 °F 24.8 °F 32.0 °F 100% 29.86 in 7.0 mi NW 8.1 mph - N/A   Overcast